User: anonymous   Login
Location: Herm
(49.4830°N, 2.4500°W)
Time: 14:14:26
(UTC+01:00)
Language:

Hubble Space Telescope - Orbit

View from above orbital plane
View from above orbital plane
View from above satellite
View from above satellite

Ground track
Ground track

The orbit data is extracted from the following two-line orbital elements,

1 20580U 90037B   18199.60850068  .00000376  00000-0  12011-4 0  9990
2 20580  28.4690 267.3930 0002915 115.3684  33.8884 15.09066514350224
Epoch (UTC): 18 July 2018 14:36:14
Eccentricity: 0.0002915
inclination: 28.4690°
perigee height: 537 km
apogee height: 541 km
right ascension of ascending node: 267.3930°
argument of perigee: 115.3684°
revolutions per day: 15.09066514
mean anomaly at epoch: 33.8884°
orbit number at epoch: 35022

The dashed part of the orbit path shows where the satellite is in the earth's shadow,  

DLR